Regional Weather Roundup
Issued by NWS

Home | Current Version | Previous Version | Graphics & Text | Print | Product List | Glossary On
Versions: 1 2 3 4 5 6 7 8 9 10 11 12 13 14 15 16 17 18 19 20 21 22 23 24 25 26 27 28 29 30 31 32 33 34 35 36 37 38 39 40 41 42 43 44 45 46 47 48 49 50
923
ASUS43 KBIS 251310
RWRND

NORTH DAKOTA REGIONAL WEATHER ROUNDUP
NATIONAL WEATHER SERVICE BISMARCK ND
800 AM CDT THU AUG 25 2016

NOTE: "FAIR" INDICATES FEW OR NO CLOUDS BELOW 12,000 FEET WITH NO
SIGNIFICANT WEATHER AND/OR OBSTRUCTIONS TO VISIBILITY.


NDZ001>003-009>011-017-251400-
NORTHWEST NORTH DAKOTA

CITY           SKY/WX    TMP DP  RH WIND       PRES   REMARKS
WILLISTON      PTCLDY    53  46  77 W10       30.19R
MINOT          CLOUDY    55  52  89 W15       30.11R
MINOT AFB      MOCLDY    53  51  93 W9        30.11R
$$

NDZ018>021-031>035-040>046-251400-
SOUTHWEST NORTH DAKOTA

CITY           SKY/WX    TMP DP  RH WIND       PRES   REMARKS
BISMARCK       CLOUDY    55  50  83 NW8       30.13R
DICKINSON      CLOUDY    51  45  79 NW12      30.18R
GARRISON         N/A     53  51  93 N15       30.12R
HETTINGER ARPT CLEAR     48  44  86 W9        30.22R
$$

NDZ004>008-012>016-024-026-027-054-251400-
NORTHEAST NORTH DAKOTA

CITY           SKY/WX    TMP DP  RH WIND       PRES   REMARKS
GRAND FORKS    CLOUDY    59  55  87 W13       29.94R
GRND FRKS AFB  CLOUDY    59  55  88 NW12      29.96R
DEVILS LAKE    CLOUDY    56  53  90 N18G25    30.03R
$$

NDZ022-023-025-028>030-036>039-047>053-251400-
SOUTHEAST NORTH DAKOTA

CITY           SKY/WX    TMP DP  RH WIND       PRES   REMARKS
FARGO          CLOUDY    59  52  77 W9        30.00R
JAMESTOWN      CLOUDY    57  51  80 W16G24    30.05R
$$





USA.gov is the U.S. government's official web portal to all federal, state and local government web resources and services.